FW2347 Weather Reports


Display with metric or nautical units.
time (UTC)temp
F
wind
direction
speed
MPH
gust
MPH
rain 1hr
in
rain 24hr
in
rain mn
in
humidity
%
barometer
mb
20201026101629 53 223 1.0 13.0 0.00 0.00 0.00 72 1009.4
20201026100043 53 279 4.0 12.0 0.00 0.00 0.00 72 1009.2
20201026093056 52 124 5.0 9.0 0.00 0.00 0.00 75 1008.9
20201026091536 50 206 0.0 6.0 0.00 0.00 0.00 77 1009.0
20201026090134 50 211 0.0 4.0 0.00 0.00 0.00 77 1009.0
20201026084527 49 227 0.0 2.0 0.00 0.00 0.00 78 1009.1
20201026083141 48 234 1.0 6.0 0.00 0.00 0.00 78 1009.1
20201026081619 48 206 6.0 9.0 0.00 0.00 0.00 78 1008.9
20201026080032 47 167 5.0 13.0 0.00 0.00 0.00 79 1008.7
20201026073043 47 219 0.0 10.0 0.00 0.00 0.00 79 1008.4
20201026071724 47 280 6.0 14.0 0.00 0.00 0.00 79 1008.3
20201026070105 48 266 4.0 10.0 0.00 0.00 0.00 79 1008.1
20201026064509 48 165 6.0 14.0 0.00 0.00 0.00 78 1008.0
20201026063046 48 157 6.0 15.0 0.00 0.00 0.00 78 1007.8
20201026061516 49 194 10.0 18.0 0.00 0.00 0.00 78 1007.6
20201026060106 50 158 4.0 9.0 0.00 0.00 0.00 78 1007.2
20201026054540 51 168 1.0 6.0 0.00 0.00 0.00 77 1007.1
20201026053035 52 53 1.0 4.0 0.00 0.00 0.00 78 1006.9
20201026051702 52 349 0.0 5.0 0.00 0.00 0.00 77 1006.6
20201026050106 53 144 1.0 13.0 0.00 0.00 0.00 77 1006.5
20201026044824 53 105 2.0 7.0 0.00 0.00 0.00 77 1006.6
20201026043025 53 107 3.0 8.0 0.00 0.00 0.00 77 1006.3
20201026040143 53 254 0.0 12.0 0.00 0.00 0.00 77 1006.2
20201026034521 53 298 2.0 9.0 0.00 0.00 0.00 77 1006.3
20201026031615 53 355 2.0 11.0 0.00 0.00 0.00 77 1005.9
20201026030239 53 212 2.0 12.0 0.00 0.00 0.00 76 1006.3
20201026024646 52 196 0.0 6.0 0.00 0.00 0.00 75 1005.8
20201026023125 52 155 1.0 7.0 0.00 0.00 0.00 74 1005.7
20201026021536 53 163 1.0 5.0 0.00 0.00 0.00 76 1006.0
20201026014606 53 153 0.0 5.0 0.00 0.00 0.00 77 1006.5
20201026013028 54 175 0.0 9.0 0.00 0.00 0.00 77 1006.9
20201026011627 54 222 1.0 9.0 0.00 0.00 0.00 77 1007.0
20201026010052 54 207 2.0 15.0 0.00 0.00 0.00 76 1007.1
20201026003123 54 215 6.0 23.0 0.00 0.00 0.00 74 1007.8
20201026001530 49 309 2.0 3.0 0.00 0.00 0.00 53 1007.2
20201026000131 49 309 0.0 2.0 0.00 0.00 0.00 66 1007.1
20201025234526 50 309 0.0 4.0 0.00 0.00 0.00 72 1007.2
20201025233116 49 309 0.0 1.0 0.00 0.00 0.00 72 1007.0
20201025231534 49 309 2.0 5.0 0.00 0.00 0.00 69 1007.1
20201025230051 49 309 0.0 2.0 0.00 0.00 0.00 71 1007.2
20201025223057 50 309 0.0 0.0 0.00 0.00 0.00 76 1007.2
20201025221527 51 309 0.0 5.0 0.00 0.00 0.00 76 1007.0
20201025220146 51 309 1.0 4.0 0.00 0.00 0.00 77 1007.3
20201025214546 51 309 0.0 3.0 0.00 0.00 0.00 77 1007.6
20201025211609 50 309 1.0 4.0 0.00 0.00 0.00 76 1007.9
20201025210043 49 309 2.0 4.0 0.00 0.00 0.00 76 1008.1
20201025203028 49 309 2.0 4.0 0.00 0.00 0.00 76 1008.5
20201025200020 49 309 0.0 4.0 0.00 0.00 0.00 77 1008.9
20201025194634 49 309 1.0 5.0 0.00 0.00 0.00 77 1008.8
20201025193031 49 309 0.0 7.0 0.00 0.00 0.00 78 1009.1
20201025191619 50 297 0.0 0.0 0.00 0.00 0.00 78 1009.2
20201025190046 50 297 0.0 5.0 0.00 0.00 0.00 78 1009.3
20201025183025 51 161 0.0 3.0 0.00 0.00 0.00 78 1009.6
20201025181527 52 161 0.0 2.0 0.00 0.00 0.00 77 1009.6
20201025180151 52 161 0.0 3.0 0.00 0.00 0.00 75 1009.7
20201025174607 54 161 0.0 2.0 0.00 0.00 0.00 73 1009.7
20201025173100 57 161 0.0 0.0 0.00 0.00 0.00 67 1009.7
20201025171609 58 161 0.0 1.0 0.00 0.00 0.00 65 1009.7
20201025170332 59 168 3.0 9.0 0.00 0.00 0.00 63 1009.7
20201025163054 60 173 4.0 8.0 0.00 0.00 0.00 60 1009.8
20201025161519 61 159 6.0 9.0 0.00 0.00 0.00 59 1010.1
20201025160041 61 167 4.0 10.0 0.00 0.00 0.00 59 1010.1
20201025154558 62 200 8.0 14.0 0.00 0.00 0.00 58 1010.0
20201025153102 63 232 4.0 12.0 0.00 0.00 0.00 57 1010.1
20201025151531 64 246 4.0 16.0 0.00 0.00 0.00 55 1010.2
20201025150055 64 227 3.0 12.0 0.00 0.00 0.00 54 1010.1
20201025144538 65 157 7.0 11.0 0.00 0.00 0.00 54 1009.9
20201025143035 65 157 9.0 18.0 0.00 0.00 0.00 53 1010.0
20201025141707 65 145 11.0 22.0 0.00 0.00 0.00 53 1010.2
20201025140038 65 304 9.0 17.0 0.00 0.00 0.00 56 1010.5
20201025134528 65 180 12.0 17.0 0.00 0.00 0.00 58 1010.5
20201025133018 64 153 6.0 19.0 0.00 0.00 0.00 60 1010.9
20201025131656 64 132 3.0 17.0 0.00 0.00 0.00 61 1011.0
20201025130028 63 188 6.0 17.0 0.00 0.00 0.00 61 1011.2
20201025124520 63 150 11.0 19.0 0.00 0.00 0.00 60 1011.2
20201025123115 63 182 11.0 19.0 0.00 0.00 0.00 60 1011.5
20201025121513 63 173 6.0 18.0 0.00 0.00 0.00 59 1011.7
20201025120045 61 195 8.0 12.0 0.00 0.00 0.00 62 1012.0
20201025114616 60 150 5.0 13.0 0.00 0.00 0.00 64 1012.1
20201025113018 59 164 5.0 15.0 0.00 0.00 0.00 65 1012.5
20201025111656 59 190 7.0 15.0 0.00 0.00 0.00 66 1012.8
20201025110051 59 198 11.0 18.0 0.00 0.00 0.00 65 1013.1
20201025104519 59 245 11.0 20.0 0.00 0.00 0.00 66 1013.3